Temp
-7 -7 -7 -7 -7 -7 -7 -7 -7 -7 -7 -7 -7 -7 -7 -7 -7 -7 -7 -7 -7 -7 -7 -7 -7 -7 -7 -7 -7 -7 -7 -7 -7
-7 -7 -7 -7 -7 -7 -7 -7 -7 -7 -7 -7 -7 -7 -7 -7 -7 -7 -7 -7 -7 -7 -7 -7 -7 -7 -7 -7 -7 -7 -7 -7 -7
-6 -7 -7 -7 -7 -7 -7 -7 -7 -7 -7 -7 -7 -7 -7 -7 -7 -7 -7 -7 -7 -7 -7 -8 -8 -8 -8 -7 -7 -7 -7 -7 -7
-7 -7 -7 -7 -6 -7 -7 -7 -7 -7 -7 -7 -7 -7 -7 -7 -7 -7 -7 -8 -8 -8 -8 -8 -8 -8 -8 -8 -8 -8 -8 -8 -8
-7 -7 -7 -7 -7 -7 -7 -7 -7 -7 -7 -7 -7 -7 -7 -7 -7 -7 -8 -8 -8 -8 -8 -8 -8 -8 -8 -8 -8 -9 -9 -9 -9
-7 -7 -7 -7 -7 -8 -8 -8 -8 -8 -8 -8 -8 -8 -8 -7 -7 -8 -8 -8 -8 -8 -8 -8 -9 -9 -9 -8 -9 -9 -9 -9 -9
-7 -8 -8 -8 -8 -8 -8 -8 -8 -9 -9 -9 -9 -9 -9 -9 -9 -8 -8 -9 -9 -9 -9 -9 -9 -9 -9 -9 -9 -9 -9 -9 -9
-8 -8 -9 -9 -9 -9 -9 -9 -9 -9 -9 -9 -9 -9 -9 -9 -9 -9 -9 -9 -9 -9 -10 -9 -9 -9 -9 -9 -9 -9 -9 -9 -9
-9 -9 -9 -9 -9 -9 -9 -9 -9 -9 -9 -9 -9 -9 -9 -9 -9 -9 -9 -9 -9 -9 -9 -10 -10 -10 -10 -10 -10 -10 -9 -10 -10
-9 -9 -9 -9 -9 -9 -9 -9 -9 -9 -9 -9 -9 -9 -10 -10 -10 -10 -10 -10 -10 -10 -10 -10 -10 -10 -10 -10 -10 -10 -10 -10 -10
-9 -9 -9 -9 -9 -9 -9 -9 -9 -9 -10 -10 -10 -10 -10 -10 -10 -10 -10 -10 -11 -11 -11 -11 -11 -11 -11 -11 -11 -10 -10 -11 -11
-9 -9 -9 -9 -9 -9 -10 -10 -10 -10 -10 -10 -10 -10 -10 -10 -11 -11 -11 -11 -11 -11 -12 -11 -11 -11 -11 -11 -11 -11 -11 -11 -11
-9 -9 -9 -9 -10 -10 -10 -10 -10 -11 -11 -11 -10 -10 -11 -11 -11 -11 -11 -11 -12 -12 -12 -12 -12 -12 -12 -11 -11 -11 -11 -11 -12
-9 -9 -10 -10 -10 -10 -10 -11 -11 -11 -11 -12 -12 -11 -11 -11 -11 -11 -12 -12 -12 -12 -12 -12 -13 -13 -12 -12 -11 -11 -12 -12 -12
-10 -10 -10 -10 -10 -11 -11 -11 -11 -12 -12 -12 -12 -11 -11 -11 -11 -12 -12 -12 -12 -12 -12 -12 -13 -13 -13 -12 -12 -11 -12 -12 -12
-10 -10 -10 -10 -11 -11 -11 -12 -12 -12 -12 -11 -11 -11 -11 -12 -12 -11 -11 -12 -12 -13 -13 -13 -13 -13 -13 -13 -12 -13 -12 -12 -12
-10 -10 -11 -11 -11 -12 -12 -12 -12 -11 -11 -11 -11 -11 -12 -12 -11 -11 -12 -13 -14 -14 -14 -14 -13 -13 -14 -14 -13 -13 -13 -12 -12
-12 -12 -12 -12 -12 -12 -12 -11 -11 -11 -12 -12 -12 -11 -11 -11 -12 -12 -15 -16 -16 -16 -16 -16 -15 -14 -14 -14 -14 -14 -13 -12 -12
-11 -11 -11 -11 -11 -12 -11 -11 -11 -12 -12 -12 -12 -12 -11 -11 -11 -16 -17 -18 -18 -17 -17 -16 -16 -15 -15 -14 -14 -14 -14 -13 -13
-12 -11 -11 -12 -11 -11 -11 -11 -12 -12 -13 -13 -12 -12 -12 -12 -14 -16 -18 -19 -18 -18 -17 -16 -16 -14 -15 -15 -15 -14 -14 -14 -14
Height
5874 5874 5873 5873 5872 5872 5871 5870 5870 5870 5870 5869 5869 5868 5868 5868 5868 5868 5868 5867 5867 5867 5866 5866 5865 5865 5865 5865 5865 5864 5864 5863 5862
5871 5871 5870 5870 5869 5869 5868 5867 5867 5867 5867 5866 5866 5865 5865 5865 5864 5863 5863 5863 5863 5863 5863 5862 5862 5861 5860 5860 5860 5860 5859 5859 5859
5868 5868 5867 5866 5866 5865 5864 5864 5863 5862 5862 5862 5861 5861 5860 5860 5860 5860 5859 5858 5858 5858 5857 5857 5857 5857 5856 5856 5855 5855 5855 5855 5854
5863 5863 5862 5861 5861 5860 5860 5858 5857 5857 5856 5856 5855 5855 5855 5854 5855 5854 5854 5853 5853 5852 5852 5852 5851 5850 5850 5850 5850 5849 5849 5848 5848
5858 5857 5856 5855 5855 5854 5854 5853 5852 5851 5850 5849 5849 5849 5849 5847 5848 5848 5848 5847 5847 5847 5846 5846 5845 5845 5844 5843 5843 5843 5843 5843 5842
5852 5851 5850 5849 5848 5847 5847 5846 5846 5845 5844 5842 5842 5842 5841 5841 5841 5841 5840 5840 5840 5840 5840 5839 5839 5838 5837 5837 5836 5836 5836 5836 5836
5845 5844 5843 5842 5841 5840 5839 5839 5838 5838 5837 5836 5835 5834 5834 5834 5833 5833 5832 5831 5831 5831 5832 5832 5831 5831 5830 5830 5829 5829 5829 5828 5828
5840 5839 5838 5837 5835 5834 5833 5831 5831 5830 5829 5829 5829 5827 5826 5825 5825 5824 5824 5824 5822 5822 5822 5822 5823 5822 5822 5822 5821 5821 5821 5821 5821
5835 5834 5832 5831 5829 5828 5826 5824 5823 5822 5821 5821 5819 5820 5819 5817 5815 5816 5816 5814 5813 5813 5813 5812 5812 5813 5813 5813 5813 5812 5812 5812 5812
5828 5827 5825 5823 5822 5820 5818 5817 5815 5813 5812 5811 5810 5810 5807 5808 5808 5808 5805 5805 5804 5802 5803 5802 5802 5802 5802 5803 5803 5803 5803 5803 5803
5822 5820 5817 5814 5812 5810 5809 5806 5805 5804 5802 5800 5798 5798 5798 5796 5795 5795 5795 5795 5793 5792 5791 5792 5792 5792 5792 5792 5792 5792 5792 5793 5793
5813 5811 5808 5805 5802 5800 5798 5796 5795 5792 5789 5790 5788 5786 5784 5783 5783 5782 5781 5781 5781 5781 5779 5779 5781 5781 5781 5781 5780 5780 5780 5781 5782
5802 5800 5798 5795 5792 5790 5787 5784 5783 5781 5778 5776 5776 5774 5773 5771 5769 5768 5768 5767 5766 5766 5767 5767 5767 5769 5769 5769 5770 5769 5768 5770 5770
5791 5788 5785 5783 5781 5778 5775 5773 5771 5769 5767 5766 5764 5763 5762 5760 5758 5756 5754 5754 5752 5751 5751 5753 5755 5754 5756 5757 5758 5759 5759 5759 5760
5778 5775 5773 5770 5769 5766 5763 5762 5760 5759 5758 5757 5755 5752 5749 5747 5744 5742 5739 5737 5736 5735 5736 5737 5740 5743 5742 5745 5747 5742 5746 5747 5749
5767 5764 5761 5758 5756 5754 5753 5752 5752 5750 5747 5746 5743 5741 5736 5732 5728 5723 5719 5717 5714 5714 5717 5719 5722 5726 5730 5731 5731 5726 5732 5736 5736
5754 5750 5748 5746 5746 5745 5745 5744 5743 5740 5736 5733 5730 5727 5723 5716 5709 5702 5695 5692 5689 5691 5695 5699 5704 5708 5711 5715 5718 5719 5723 5726 5723
5745 5743 5741 5740 5740 5739 5738 5735 5733 5730 5725 5720 5717 5714 5709 5703 5689 5680 5671 5667 5668 5670 5674 5680 5686 5691 5695 5700 5705 5707 5713 5716 5714
5739 5737 5735 5734 5732 5731 5729 5726 5723 5719 5715 5710 5705 5700 5693 5684 5678 5660 5652 5648 5650 5653 5659 5665 5671 5675 5681 5686 5691 5695 5699 5703 5703
5731 5730 5729 5727 5725 5723 5720 5717 5713 5709 5705 5702 5697 5689 5678 5665 5652 5649 5640 5634 5638 5642 5650 5653 5663 5663 5667 5673 5678 5682 5687 5692 5692
Wind_Speed
13 13 13 13 13 14 14 14 14 15 15 16 17 17 18 22 25 24 23 24 22 22 20 20 20 20 21 21 21 21 21 22 23
17 17 17 17 18 18 19 20 20 19 19 20 21 21 20 20 20 20 23 27 26 25 24 24 24 23 24 24 25 25 25 25 25
22 23 24 23 23 24 25 25 26 26 25 26 26 26 25 24 24 24 23 22 24 27 29 28 28 28 27 27 26 26 26 27 27
25 25 26 27 28 29 30 30 31 31 32 32 32 31 31 30 29 28 27 27 26 25 26 27 28 29 30 31 31 30 30 29 29
28 28 29 31 31 32 32 32 34 34 35 36 36 36 35 36 34 34 33 34 32 31 30 30 30 31 31 32 32 33 33 33 33
31 32 32 34 34 35 34 35 35 36 37 39 39 38 38 39 38 37 37 38 37 36 35 35 34 34 33 33 33 34 34 35 35
32 32 32 33 33 33 34 35 35 36 37 38 39 39 40 41 41 39 39 40 41 41 40 39 38 38 37 37 37 36 36 36 35
28 29 29 29 31 31 33 34 34 34 34 34 35 36 37 38 37 38 40 43 43 41 41 43 43 42 42 41 40 40 40 38 37
30 31 31 32 32 33 34 35 36 37 38 38 39 39 39 39 41 40 39 40 42 44 48 47 45 45 45 45 44 44 43 42 40
31 32 33 34 35 38 39 40 42 43 43 44 45 45 47 46 45 44 46 45 45 46 45 46 47 48 47 47 47 47 46 45 44
34 36 38 40 42 43 45 47 48 48 49 50 52 52 51 53 53 53 52 51 51 50 51 48 47 47 47 47 47 48 49 48 47
41 43 45 47 49 50 51 51 51 53 54 52 52 53 53 54 53 54 55 56 56 55 54 54 50 48 47 48 50 50 50 50 49
49 49 50 51 52 51 51 51 50 48 49 53 53 54 53 53 53 54 54 56 57 58 58 57 56 52 50 49 49 51 52 51 51
50 50 50 50 49 48 48 48 50 50 48 44 47 48 49 49 52 54 56 58 58 59 60 60 57 57 54 53 52 53 52 50 50
54 53 51 50 49 49 48 46 42 38 42 44 46 50 52 54 58 60 62 64 65 65 65 63 62 58 57 55 51 61 53 58 53
53 54 54 52 48 44 40 35 35 40 43 48 51 51 54 56 59 64 68 70 69 69 68 67 66 63 62 60 59 57 52 54 55
49 48 45 41 35 30 31 35 41 44 48 53 49 49 52 55 58 63 68 65 64 67 70 68 66 65 63 64 64 65 56 53 45
31 28 27 27 28 31 33 37 42 46 47 46 47 48 46 52 60 66 61 57 53 58 62 65 65 65 63 63 64 65 56 48 36
33 31 31 30 31 32 35 39 40 41 41 43 43 43 49 57 61 46 46 44 44 47 45 51 56 60 63 61 60 61 55 59 42
33 30 29 31 30 31 33 35 38 38 37 36 38 40 46 54 52 39 39 33 34 37 41 38 38 42 56 57 58 59 61 58 58
Wind_Direction
288 286 284 285 285 285 287 285 285 286 287 288 287 287 282 276 276 278 280 279 278 276 274 271 269 268 268 269 267 267 268 269 270
282 282 283 284 284 286 286 286 285 285 285 286 287 287 286 282 279 277 277 274 276 277 276 276 274 271 269 268 268 267 266 267 269
279 281 282 283 283 284 285 285 285 285 284 285 286 286 286 284 283 282 279 276 276 275 273 274 274 274 273 271 270 271 272 273 273
286 284 281 281 281 282 282 283 283 283 283 282 280 280 282 282 281 280 278 277 274 270 271 272 271 271 271 272 272 271 270 270 271
281 281 279 278 278 279 278 278 279 280 282 282 281 280 279 277 276 276 277 276 275 272 268 267 269 270 270 270 271 271 272 272 272
280 279 278 278 278 278 278 277 277 276 277 278 278 279 278 278 277 275 275 274 273 272 271 270 269 269 268 269 270 271 272 271 271
280 279 280 281 282 283 283 282 281 280 280 279 280 282 281 280 279 277 275 275 274 272 271 270 269 269 268 269 270 269 270 270 271
282 284 285 285 288 287 288 286 285 285 283 283 282 283 284 284 282 282 280 278 276 275 273 270 269 269 269 269 269 270 271 271 271
285 286 286 286 285 285 284 285 285 286 286 284 284 281 281 281 284 282 279 279 278 276 275 274 273 271 268 267 268 268 269 271 272
288 289 289 288 285 284 283 282 282 281 280 280 278 278 280 278 276 277 280 278 277 276 275 274 273 271 271 270 269 268 269 269 270
286 285 285 284 282 281 280 281 280 278 278 278 279 279 277 278 279 278 276 275 277 276 275 273 273 272 270 269 269 268 268 268 268
284 282 281 281 281 281 282 281 282 284 283 282 282 281 281 281 280 279 278 276 274 272 273 273 271 270 269 268 266 265 265 266 267
285 284 283 282 283 283 283 283 283 282 282 282 281 281 280 281 283 284 283 280 276 273 270 268 270 268 267 266 266 265 265 265 265
286 285 284 283 283 282 282 282 282 280 280 282 285 285 284 283 283 285 284 282 281 278 274 269 265 266 265 264 266 267 267 265 268
288 287 286 285 284 284 283 282 282 282 285 287 289 290 290 288 286 284 283 280 277 274 273 271 266 260 262 263 267 265 273 262 264
289 288 286 285 284 282 280 279 284 292 293 294 292 290 292 292 290 288 284 280 274 266 264 263 264 262 257 257 256 269 268 273 256
289 287 286 284 282 282 281 287 294 299 297 298 300 299 296 293 293 293 288 282 270 261 257 255 255 256 257 256 256 259 264 271 253
302 299 297 291 289 289 290 293 296 297 297 301 301 300 297 295 301 298 287 277 269 261 255 254 253 251 253 256 258 260 261 268 258
298 295 293 290 288 289 292 297 297 297 299 301 301 302 304 303 307 305 294 277 261 258 254 253 252 252 251 254 257 260 259 250 259
289 287 291 291 291 296 298 295 295 297 299 299 302 312 319 321 318 318 293 272 257 259 247 251 251 262 252 252 254 256 261 259 269